When you browse on this site, cookies collect data to enhance your experience and personalize the content and advertising you see.
Visit our Privacy Policy to learn more. By continuing to use the site, you agree to this use of cookies and data.
  • In Hungary
  • List of Countries
  • For 7 days
  • Water Temperature
  • Satellite Maps
  • Weather Map
  • News
  • Weather Widgets
  • user-avatar
    Login

    Hourly Weather Knysna

    Today, 18 February, Monday

    Time Temperature Precipitation Wind Pressure Humidity
    00:00 +20°C° 0 mm 2 mps 753 mmHg 84%
    01:00 +20°C° 0 mm 2 mps 753 mmHg 84%
    02:00 +20°C° 0 mm 2 mps 753 mmHg 83%
    03:00 +20°C° 0 mm 2 mps 753 mmHg 83%
    04:00 +20°C° 0 mm 2 mps 753 mmHg 83%
    05:00 +20°C° 0 mm 2 mps 752 mmHg 82%
    06:00 +21°C° 0 mm 2 mps 752 mmHg 75%
    07:00 +24°C° 0 mm 2 mps 752 mmHg 67%
    08:00 +26°C° 0 mm 2 mps 752 mmHg 59%
    09:00 +27°C° 0 mm 3 mps 752 mmHg 53%
    10:00 +29°C° 0 mm 3 mps 752 mmHg 48%
    11:00 +32°C° 0 mm 4 mps 752 mmHg 42%
    12:00 +32°C° 0 mm 4 mps 752 mmHg 41%
    13:00 +33°C° 0 mm 4 mps 751 mmHg 41%
    14:00 +33°C° 0 mm 5 mps 751 mmHg 40%
    15:00 +32°C° 0 mm 5 mps 750 mmHg 45%
    16:00 +30°C° 0 mm 5 mps 750 mmHg 49%
    17:00 +30°C° 0 mm 5 mps 750 mmHg 54%
    18:00 +28°C° 0 mm 5 mps 750 mmHg 64%
    19:00 +26°C° 0 mm 4 mps 750 mmHg 75%
    20:00 +23°C° 0 mm 4 mps 750 mmHg 86%
    21:00 +22°C° 0 mm 4 mps 751 mmHg 90%
    22:00 +22°C° 0 mm 3 mps 751 mmHg 93%
    23:00 +21°C° 0 mm 3 mps 751 mmHg 96%

    Tomorrow, 19 February, Tuesday

    Time Temperature Precipitation Wind Pressure Humidity
    00:00 +21°C° 0 mm 3 mps 751 mmHg 96%
    01:00 +21°C° 0 mm 3 mps 750 mmHg 96%
    02:00 +21°C° 0 mm 2 mps 750 mmHg 96%
    03:00 +21°C° 0 mm 2 mps 750 mmHg 96%
    04:00 +21°C° 0 mm 2 mps 750 mmHg 96%
    05:00 +22°C° 0 mm 1 mps 749 mmHg 95%
    06:00 +23°C° 0 mm 1 mps 749 mmHg 89%
    07:00 +24°C° 0 mm 2 mps 749 mmHg 82%
    08:00 +26°C° 0 mm 2 mps 749 mmHg 75%
    09:00 +27°C° 0 mm 3 mps 749 mmHg 67%
    10:00 +29°C° 0 mm 3 mps 749 mmHg 59%
    11:00 +32°C° 0 mm 4 mps 748 mmHg 52%
    12:00 +33°C° 0 mm 4 mps 747 mmHg 50%
    13:00 +33°C° 0 mm 5 mps 747 mmHg 48%
    14:00 +33°C° 0 mm 5 mps 746 mmHg 46%
    15:00 +33°C° 0 mm 5 mps 745 mmHg 48%
    16:00 +32°C° 0 mm 5 mps 744 mmHg 51%
    17:00 +32°C° 0 mm 5 mps 744 mmHg 53%
    18:00 +29°C° 0 mm 4 mps 744 mmHg 62%
    19:00 +27°C° 0 mm 2 mps 744 mmHg 71%
    20:00 +25°C° 0 mm 1 mps 744 mmHg 80%
    21:00 +25°C° 0 mm 1 mps 745 mmHg 80%
    22:00 +25°C° 0 mm 1 mps 745 mmHg 81%
    23:00 +24°C° 0 mm 1 mps 746 mmHg 82%

    Day after tomorrow, 20 February, Wednesday

    Time Temperature Precipitation Wind Pressure Humidity
    00:00 +24°C° 0 mm 1 mps 746 mmHg 82%
    01:00 +24°C° 0 mm 2 mps 746 mmHg 83%
    02:00 +23°C° 0 mm 2 mps 745 mmHg 84%
    03:00 +22°C° 0 mm 3 mps 746 mmHg 85%
    04:00 +22°C° 0 mm 3 mps 746 mmHg 87%
    05:00 +22°C° 0 mm 3 mps 746 mmHg 88%
    06:00 +22°C° 0 mm 4 mps 747 mmHg 85%
    07:00 +23°C° 0 mm 4 mps 747 mmHg 82%
    08:00 +25°C° 0 mm 4 mps 748 mmHg 80%
    09:00 +26°C° 0.1 mm 4 mps 749 mmHg 73%
    10:00 +27°C° 0.1 mm 4 mps 749 mmHg 67%
    11:00 +28°C° 0.1 mm 4 mps 750 mmHg 61%
    12:00 +29°C° 0 mm 4 mps 750 mmHg 58%
    13:00 +29°C° 0 mm 4 mps 750 mmHg 56%
    14:00 +30°C° 0 mm 4 mps 750 mmHg 53%
    15:00 +29°C° 0 mm 4 mps 750 mmHg 57%
    16:00 +28°C° 0 mm 4 mps 750 mmHg 62%
    17:00 +27°C° 0 mm 3 mps 750 mmHg 66%
    18:00 +25°C° 0.1 mm 3 mps 751 mmHg 73%
    19:00 +24°C° 0.1 mm 2 mps 752 mmHg 80%
    20:00 +23°C° 0.1 mm 1 mps 753 mmHg 87%
    21:00 +22°C° 0 mm 1 mps 753 mmHg 89%
    22:00 +22°C° 0 mm 1 mps 754 mmHg 90%
    23:00 +21°C° 0 mm 1 mps 754 mmHg 92%

    21 February, Thursday

    Time Temperature Precipitation Wind Pressure Humidity
    00:00 +21°C° 0 mm 1 mps 754 mmHg 92%
    01:00 +21°C° 0 mm 1 mps 754 mmHg 93%
    02:00 +21°C° 0 mm 1 mps 754 mmHg 93%
    03:00 +21°C° 0 mm 1 mps 754 mmHg 92%
    04:00 +21°C° 0 mm 1 mps 754 mmHg 92%
    05:00 +18°C° 0 mm 0 mps 753 mmHg 92%
    06:00 +20°C° 0 mm 0 mps 754 mmHg 86%
    07:00 +21°C° 0 mm 0 mps 754 mmHg 80%
    08:00 +22°C° 0 mm 0 mps 754 mmHg 74%
    09:00 +26°C° 0 mm 1 mps 754 mmHg 67%
    10:00 +27°C° 0 mm 2 mps 754 mmHg 60%
    11:00 +29°C° 0 mm 2 mps 754 mmHg 54%
    12:00 +29°C° 0 mm 3 mps 753 mmHg 54%
    13:00 +30°C° 0 mm 4 mps 753 mmHg 54%
    14:00 +30°C° 0 mm 4 mps 752 mmHg 54%
    15:00 +29°C° 0 mm 4 mps 752 mmHg 59%
    16:00 +29°C° 0 mm 4 mps 751 mmHg 63%
    17:00 +28°C° 0 mm 5 mps 751 mmHg 67%
    18:00 +27°C° 0.1 mm 4 mps 751 mmHg 75%
    19:00 +25°C° 0.1 mm 4 mps 751 mmHg 83%
    20:00 +24°C° 0.1 mm 3 mps 751 mmHg 91%
    21:00 +24°C° 0.1 mm 3 mps 751 mmHg 91%
    22:00 +24°C° 0.1 mm 3 mps 751 mmHg 91%
    23:00 +23°C° 0.1 mm 2 mps 751 mmHg 91%

    22 February, Friday

    Time Temperature Precipitation Wind Pressure Humidity
    00:00 +24°C° 0.1 mm 2 mps 751 mmHg 90%
    01:00 +24°C° 0.1 mm 2 mps 751 mmHg 89%
    02:00 +24°C° 0.1 mm 1 mps 751 mmHg 88%
    03:00 +23°C° 0.1 mm 1 mps 750 mmHg 90%
    04:00 +23°C° 0.1 mm 1 mps 750 mmHg 91%
    05:00 +23°C° 0.1 mm 1 mps 750 mmHg 93%
    06:00 +24°C° 0.1 mm 1 mps 750 mmHg 89%
    07:00 +24°C° 0.1 mm 1 mps 751 mmHg 85%
    08:00 +25°C° 0.1 mm 1 mps 751 mmHg 80%
    09:00 +27°C° 0.1 mm 1 mps 751 mmHg 73%
    10:00 +29°C° 0.1 mm 2 mps 751 mmHg 65%
    11:00 +30°C° 0.1 mm 2 mps 751 mmHg 57%
    12:00 +30°C° 0.1 mm 3 mps 750 mmHg 58%
    13:00 +30°C° 0.1 mm 3 mps 750 mmHg 59%
    14:00 +30°C° 0.1 mm 4 mps 749 mmHg 60%
    15:00 +29°C° 0.1 mm 4 mps 749 mmHg 65%
    16:00 +28°C° 0.1 mm 4 mps 749 mmHg 71%
    17:00 +27°C° 0.1 mm 4 mps 749 mmHg 76%
    18:00 +26°C° 0.2 mm 3 mps 750 mmHg 81%
    19:00 +25°C° 0.2 mm 3 mps 750 mmHg 87%
    20:00 +24°C° 0.2 mm 2 mps 750 mmHg 92%
    21:00 +24°C° 0.3 mm 2 mps 751 mmHg 93%
    22:00 +24°C° 0.3 mm 3 mps 751 mmHg 93%
    23:00 +24°C° 0.3 mm 3 mps 752 mmHg 93%

    23 February, Saturday

    Time Temperature Precipitation Wind Pressure Humidity
    00:00 +23°C° 0.3 mm 2 mps 752 mmHg 93%
    01:00 +23°C° 0.3 mm 2 mps 752 mmHg 94%
    02:00 +23°C° 0.3 mm 2 mps 752 mmHg 94%
    03:00 +21°C° 0.2 mm 2 mps 752 mmHg 95%
    04:00 +21°C° 0.2 mm 2 mps 752 mmHg 95%
    05:00 +20°C° 0.2 mm 2 mps 752 mmHg 96%
    06:00 +21°C° 0 mm 2 mps 752 mmHg 92%
    07:00 +23°C° 0 mm 2 mps 753 mmHg 89%
    08:00 +23°C° 0 mm 2 mps 753 mmHg 85%
    09:00 +25°C° 0 mm 2 mps 753 mmHg 76%
    10:00 +26°C° 0 mm 3 mps 753 mmHg 67%
    11:00 +28°C° 0 mm 4 mps 753 mmHg 58%
    12:00 +28°C° 0 mm 4 mps 752 mmHg 56%
    13:00 +28°C° 0 mm 5 mps 752 mmHg 55%
    14:00 +29°C° 0 mm 5 mps 752 mmHg 53%
    15:00 +28°C° 0.1 mm 5 mps 751 mmHg 56%
    16:00 +27°C° 0.1 mm 5 mps 751 mmHg 60%
    17:00 +26°C° 0.1 mm 5 mps 751 mmHg 63%
    18:00 +25°C° 0 mm 5 mps 751 mmHg 70%
    19:00 +23°C° 0 mm 5 mps 752 mmHg 76%
    20:00 +21°C° 0 mm 4 mps 752 mmHg 82%
    21:00 +21°C° 0 mm 4 mps 752 mmHg 84%
    22:00 +21°C° 0 mm 4 mps 753 mmHg 86%
    23:00 +20°C° 0 mm 3 mps 753 mmHg 89%
    Show more